Location: Mentone
(34.5413°N, 85.5351°W)
Time: 05:56:38
(UTC-05:00)

Cosmos 2026 Rocket - Visible Passes

Search period start: 25 April 2015 00:00
Search period end: 05 May 2015 00:00
Orbit: 939 x 1003 km, 82.9° (Epoch: 25 April)

Date Brightness Start Highest point End Pass type
(mag) Time Alt. Az. Time Alt. Az. Time Alt. Az.
25 Apr 4.4 21:10:07 37° ESE 21:10:50 38° E 21:16:27 10° NNE visible
25 Apr 5.6 22:54:38 23° W 22:56:15 26° WNW 23:01:11 10° NNW visible
26 Apr 3.8 21:33:10 51° SSE 21:34:43 72° E 21:40:49 10° N visible
26 Apr 6.4 23:17:40 10° W 23:20:44 14° WNW 23:23:28 10° NW visible
27 Apr 5.5 20:11:37 12° ESE 20:13:54 15° E 20:17:28 10° NE visible
27 Apr 4.3 21:56:07 35° SSW 21:58:43 62° W 22:04:46 10° N visible
28 Apr 4.8 20:34:27 19° SE 20:37:40 30° E 20:42:54 10° NNE visible
28 Apr 5.4 22:18:57 17° SW 22:22:53 33° WNW 22:28:17 10° NNW visible
29 Apr 4.0 20:57:10 19° SSE 21:01:30 56° E 21:07:28 10° NNE visible
29 Apr 6.3 22:43:07 10° WSW 22:47:16 18° WNW 22:51:07 10° NNW visible
30 Apr 4.0 21:19:40 12° S 21:25:27 80° W 21:31:34 10° N visible
01 May 5.1 19:59:59 10° SE 20:04:30 23° E 20:09:12 10° NE visible
01 May 5.0 21:43:44 10° SSW 21:49:32 42° WNW 21:55:16 10° N visible
02 May 4.3 20:22:36 10° SSE 20:28:19 43° E 20:34:02 10° NNE visible
02 May 6.0 22:09:00 10° SW 22:13:50 23° WNW 22:18:27 10° NNW visible
03 May 3.9 20:46:04 10° S 20:52:12 81° E 20:58:18 10° N visible
03 May 6.7 22:36:02 10° W 22:38:22 12° WNW 22:40:13 10° NW visible
04 May 4.6 21:10:14 10° SSW 21:16:13 55° W 21:22:10 10° N visible
